{"data":{"norad_id":65671,"intl_designator":"2025-211V","name":"STARLINK-35194","alt_names":[],"object_type":"PAYLOAD","status":"ACTIVE","operator":null,"country":"US","launch_date":"2025-09-19","launch_site_code":"AFWTR","launch_vehicle":null,"mission":null,"orbit_class":"UNKNOWN","rcs_meters":null,"size_class":null,"mass_kg":null,"dimensions":null,"purposes":["comms"],"wikipedia_slug":null,"has_3d_model":false,"image_url":null,"decayed_at":null,"tle_current":{"epoch":"2026-09-20T14:16:11.388864Z","epoch_age_seconds":100611,"freshness":"FRESH","line1":"1 65671U 25211V   26263.59457626  .00011287  00000+0  35133-3 0  9995","line2":"2 65671  97.2852 303.7637 0000809  77.2155 282.9178 15.33453998 56539","mean_motion":15.33453998,"eccentricity":8.09e-5,"inclination_deg":97.2852,"raan_deg":303.7637,"arg_perigee_deg":77.2155,"mean_anomaly_deg":282.9178,"bstar":0.00035133,"rev_number":5653,"period_min":93.905653634091,"perigee_km":464.96275133138,"apogee_km":466.07005445197,"semimajor_km":6843.6534028917,"source":"CELESTRAK","updated_at":"2026-09-21T09:00:35.683293Z"}}}